AirNav   Phillips 66 Aviation Fuel
 
 1428 users online  

3S2 Swans Field Airport
Dixfield, Maine, USA

GOING TO DIXFIELD?


FAA INFORMATION EFFECTIVE 29 MARCH 2018

Location

FAA Identifier: 3S2
Lat/Long: 44-30-50.9000N / 070-24-24.5000W
44-30.848333N / 070-24.408333W
44.5141389 / -70.4068056
(estimated)
Elevation: 418.4 ft. / 128 m (estimated)
Variation: 18W (1985)
From city: 3 miles SE of DIXFIELD, ME
Time zone: UTC -4 (UTC -5 during Standard Time)
Zip code: 04224

Airport Operations

Airport use: Open to the public
Activation date: 05/1971
Control tower: no
ARTCC: BOSTON CENTER
FSS: BANGOR FLIGHT SERVICE STATION
NOTAMs facility: BGR (NOTAM-D service available)
Attendance: UNATNDD
Wind indicator: yes
Segmented circle: no

Airport Communications

CTAF: 122.9
WX AWOS-AV at 0B1 (18 nm W): 122.9 (207-512-2516)
  • CLNC DLVY THRU FLIGHT SERVICES 1-800-WX-BRIEF.

Nearby radio navigation aids

VOR radial/distance  VOR name  Freq  Var
AUGr312/28.6AUGUSTA VOR/DME111.4018W
BMLr119/34.1BERLIN VOR/DME110.4017W

 
NDB name  Hdg/Dist  Freq  Var  ID
RANGELEY168/29.222118WRQM .-. --.- --

Airport Services

Parking: hangars and tiedowns
Airframe service: NONE
Powerplant service: NONE

Runway Information

Runway 12/30

Dimensions: 1808 x 40 ft. / 551 x 12 m
Surface: turf, in good condition
RUNWAY 12  RUNWAY 30
Latitude: 44-30.924372N44-30.773688N
Longitude: 070-24.588318W070-24.229843W
Elevation: 417.9 ft.418.4 ft.
Traffic pattern: leftleft
Runway heading: 139 magnetic, 121 true319 magnetic, 301 true
Touchdown point: yes, no lightsyes, no lights
Obstructions: 55 ft. trees, 65 ft. right of centerline12 ft. trees

Airport Ownership and Management from official FAA records

Ownership: Privately-owned
Owner: ROYAL SWAN
1308 CANTON PT. ROAD
DIXFIELD, ME 04224
Phone (207) 491-5025
Manager: ROYAL SWAN
1308 CANTON PT. ROAD
DIXFIELD, ME 04224
Phone (207) 491-5025

Airport Operational Statistics

Aircraft based on the field: 6
Single engine airplanes: 6
    
Aircraft operations: avg 43/month *
98% local general aviation
2% transient general aviation
* for 12-month period ending 09 August 2016

Additional Remarks

CONTACT AMGR FOR RY CONDITIONS IN WINTER @ 207-491-5025
ACCESS ROADWAY 45 FT FM RY 12/30, CNTRLN ALONG NORTH SIDE.
PVT ROADWAY (+10 FEET) CROSSES RY 12/30 APRX 700 FT FM NW THLD.
WILDLIFE ON OR IN VICINITY OF AIRPORT
RWY 12 +40-50 TREES FM THRESHOLD TO 400' TO THE SE, 35'L OF CENTERLINE
RUNWAY 30, +4" BERM 0' FM END OF RWY ACROSS RWY BENEATH TREES.

Instrument Procedures

There are no published instrument procedures at 3S2.

Some nearby airports with instrument procedures:

81B - Oxford County Regional Airport (22 nm S)
KOWK - Central Maine Airport of Norridgewock (26 nm NE)
KLEW - Auburn/Lewiston Municipal Airport (28 nm S)
M57 - Rangeley Lake Seaplane Base (29 nm N)
KAUG - Augusta State Airport (29 nm SE)
 
Loc | Ops | Rwys | IFR | FBO | Links
Com | Nav | Svcs | Stats | Notes

Auburn-Lewiston Municipal Airport
 
Area around 3S2 (Swans Field Airport)
 
Road maps at: MapQuest Bing Google
 
Aerial photo
WARNING: Photo may not be current or correct
Aerial photo of 3S2 (Swans Field Airport)
Do you have a better or more recent aerial photo of Swans Field Airport that you would like to share? If so, please send us your photo.

 
Sectional chart

 
Airport distance calculator
Flying to Swans Field Airport? Find the distance to fly.

From to 3S2

Sunrise and sunset
Times for 20-Apr-2018
 Local
(UTC-4)
 Zulu
(UTC)
Morning civil twilight05:1909:19
Sunrise05:5009:50
Sunset19:3123:31
Evening civil twilight20:0200:02

Current date and time
Zulu (UTC)  20-Apr-2018 20:15:18
Local (UTC-4)  20-Apr-2018 16:15:18
 
METAR
KAUG 
29nm SE 
201953Z AUTO 31010G20KT 10SM OVC060 08/M02 A2998 RMK AO2 RAB27E44 SLP154 P0000 T00831017
KLEW 
29nm S 
201956Z AUTO 32015G20KT 10SM SCT047 OVC060 09/M02 A3000 RMK AO2 PK WND 35026/1909 SLP176 T00891017
K8B0 
30nm NW 
201955Z AUTO 32009G19KT 2 1/2SM -SN SCT010 BKN031 OVC037 01/00 A2999 RMK AO2
KWVL 
32nm E 
201956Z AUTO 34009KT 10SM SCT050 OVC065 08/M02 A2994 RMK AO2 SLP170 T00831022 TSNO $
KBML 
33nm W 
202000Z AUTO 30007G23KT 260V040 10SM OVC029 06/00 A3004 RMK AO2 T00560000
KIZG 
39nm SW 
201954Z AUTO 26007G17KT 220V310 10SM BKN048 OVC055 07/M01 A3005 RMK AO2 SLP180 T00671011
KMWN 
40nm W 
201949Z 30053G63KT 0SM -SHSN FZFG BLSN VV000 M09/M09 RMK VRY LGT ICG
KCWN 
44nm SW 
201958Z AUTO 15013G19KT 10SM -RA BKN026 05/00 A2986 RMK AO2 LTG DSNT E AND W RAB41 SLP001 T00520002 $
KIWI 
44nm SE 
201953Z AUTO VRB04KT 10SM OVC060 09/M02 A2999 RMK AO2 SLP155 T00941017
KHIE 
50nm W 
201952Z AUTO 30011G19KT 10SM OVC022 03/M02 A3009 RMK AO2 SLP203 T00281017
TAF
KAUG 
29nm SE 
201720Z 2018/2118 35014G22KT P6SM OVC050 FM210000 32008KT P6SM SCT050 FM211300 33012G19KT P6SM SCT250
NOTAMs
Click for the latest NOTAMs
NOTAMs are issued by the DoD/FAA and will open in a separate window not controlled by AirNav.

 

 
 

Would you like to see your business listed on this page?

 If your business provides an interesting product or service to pilots, flight crews, aircraft, or users of the Swans Field Airport, you should consider listing it here.  To start the listing process, click on the button below
 
Add a business
 

Other Pages about Swans Field Airport

Update a link
 
Copyright © AirNav, LLC. All rights reserved. Privacy Policy  Contact